Weather History for KXLL - December, 2012

Change the Weather History Date:

Tuesday, December 4, 2012

  Actual Average (KABE) Record (KABE)
Temperature  
Mean Temperature 55 °F 36 °F  
Max Temperature 64 °F 45 °F 72 °F (1998)
Min Temperature 46 °F 27 °F 8 °F (1966)
Degree Days  
Heating Degree Days 10 29  
Month to date heating degree days 114  
Since 1 July heating degree days 1294  
Cooling Degree Days 0 0  
Month to date cooling degree days 0  
Year to date cooling degree days 757  
Growing Degree Days 5 (Base 50)    
Moisture  
Dew Point 48 °F    
Average Humidity 79    
Maximum Humidity 94    
Minimum Humidity 63    
Precipitation  
Precipitation 0.10 in 0.13 in 1.63 in (1950)
Month to date precipitation 0.53  
Year to date precipitation 42.30  
Snow  
Snow 0.00 in 0.20 in 4.10 in (1957)
Month to date snowfall 0.5  
Since 1 July snowfall 1.2  
Snow Depth -    
Sea Level Pressure  
Sea Level Pressure 30.16 in    
Wind  
Wind Speed 2 mph (South)    
Max Wind Speed 9 mph    
Max Gust Speed -    
Visibility 7 miles    
Events Rain    
T = Trace of Precipitation, MM = Missing Value Source: NWS Daily Summary

Daily Weather History Graph

Daily Weather History Graph

Search for Another Location

Airport or City:

Trip Planner

Search our weather history database for the weather conditions in past years. The results will help you decide how hot, cold, wet, or windy it might be!

Date:

Astronomy

Dec. 04, 2012 Rise Set
Actual Time 7:09 AM EST 4:35 PM EST
Civil Twilight 6:39 AM EST 5:05 PM EST
Nautical Twilight 6:05 AM EST 5:39 PM EST
Astronomical Twilight 5:32 AM EST 6:12 PM EST
Moon 10:21 PM EST (12/4) 11:01 AM EST (12/4)
Length of Visible Light 10h 26m
Length of Day
9h 25m
Waning Gibbous, 69% of the Moon is Illuminated
Dec 4
Waning Gibbous
Dec 6
Last Quarter
Dec 13
New
Dec 20
First Quarter
Dec 28
Full

Hourly Weather History & Observations

Time (EST) Temp. Dew Point Humidity Pressure Visibility Wind Dir Wind Speed Gust Speed Precip Events Conditions
12:15 AM 50.0 °F 44.6 °F 82% 30.25 in 7.0 mi Calm Calm - N/A   Overcast
12:35 AM 50.0 °F 44.6 °F 82% 30.25 in 7.0 mi NE 3.5 mph - N/A   Overcast
12:55 AM 50.0 °F 44.6 °F 82% 30.25 in 7.0 mi ENE 3.5 mph - N/A   Overcast
1:15 AM 50.0 °F 44.6 °F 82% 30.24 in 7.0 mi Calm Calm - N/A   Overcast
1:35 AM 50.0 °F 44.6 °F 82% 30.25 in 7.0 mi Calm Calm - N/A   Overcast
1:55 AM 50.0 °F 44.6 °F 82% 30.25 in 7.0 mi Calm Calm - N/A   Overcast
2:15 AM 50.0 °F 44.6 °F 82% 30.26 in 7.0 mi Calm Calm - N/A   Mostly Cloudy
2:35 AM 50.0 °F 44.6 °F 82% 30.25 in 7.0 mi Calm Calm - N/A   Overcast
2:55 AM 50.0 °F 44.6 °F 82% 30.25 in 5.0 mi Calm Calm - N/A Rain Rain
3:15 AM 50.0 °F 44.6 °F 82% 30.24 in 7.0 mi Calm Calm - 0.01 in   Overcast
3:55 AM 48.2 °F 44.6 °F 87% 30.24 in 3.0 mi Calm Calm - 0.02 in Rain Heavy Rain
4:15 AM 48.2 °F 44.6 °F 87% 30.24 in 2.5 mi Calm Calm - 0.04 in Rain Heavy Rain
4:35 AM 48.2 °F 44.6 °F 87% 30.24 in 4.0 mi Calm Calm - 0.06 in Rain Light Rain
4:55 AM 48.2 °F 44.6 °F 87% 30.24 in 2.5 mi Calm Calm - 0.07 in Rain Light Rain
5:15 AM 48.2 °F 44.6 °F 87% 30.23 in 2.5 mi Calm Calm - N/A Rain Light Rain
5:35 AM 46.4 °F 44.6 °F 93% 30.24 in 2.0 mi Calm Calm - N/A   Mostly Cloudy
5:55 AM 46.4 °F 44.6 °F 93% 30.24 in 2.5 mi Calm Calm - N/A   Overcast
6:15 AM 46.4 °F 44.6 °F 93% 30.24 in 2.5 mi Calm Calm - N/A   Scattered Clouds
6:35 AM 46.4 °F 44.6 °F 93% 30.24 in 2.5 mi Calm Calm - 0.01 in   Scattered Clouds
6:55 AM 46.4 °F 44.6 °F 93% 30.24 in 2.0 mi Calm Calm - 0.01 in   Overcast
7:15 AM 46.4 °F 44.6 °F 93% 30.24 in 0.8 mi Calm Calm - N/A   Overcast
7:35 AM 46.4 °F 44.6 °F 93% 30.24 in 1.0 mi Calm Calm - N/A   Overcast
7:55 AM 46.4 °F 44.6 °F 93% 30.25 in 1.2 mi Calm Calm - N/A   Mostly Cloudy
8:15 AM 46.4 °F 44.6 °F 93% 30.25 in 1.5 mi Calm Calm - N/A   Mostly Cloudy
8:35 AM 46.4 °F 44.6 °F 93% 30.25 in 1.5 mi Calm Calm - N/A   Mostly Cloudy
8:55 AM 48.2 °F 46.4 °F 93% 30.25 in 1.8 mi Calm Calm - N/A   Scattered Clouds
9:15 AM 50.0 °F 46.4 °F 87% 30.25 in 2.0 mi Calm Calm - N/A   Mostly Cloudy
9:35 AM 50.0 °F 48.2 °F 94% 30.25 in 2.5 mi North 3.5 mph - N/A   Scattered Clouds
9:55 AM 51.8 °F 50.0 °F 94% 30.25 in 3.0 mi Calm Calm - N/A   Scattered Clouds
10:15 AM 51.8 °F 50.0 °F 94% 30.24 in 3.0 mi NW 3.5 mph - N/A   Scattered Clouds
10:55 AM 55.4 °F 50.0 °F 82% 30.23 in 5.0 mi Calm Calm - N/A   Haze
11:15 AM 57.2 °F 51.8 °F 82% 30.22 in 5.0 mi NE 3.5 mph - N/A   Haze
11:35 AM 59.0 °F 51.8 °F 77% 30.21 in 5.0 mi Calm Calm - N/A   Haze
11:55 AM 59.0 °F 51.8 °F 77% 30.20 in 7.0 mi SSW 4.6 mph - N/A   Mostly Cloudy
12:15 PM 60.8 °F 51.8 °F 72% 30.19 in 7.0 mi Calm Calm - N/A   Scattered Clouds
12:35 PM 60.8 °F 51.8 °F 72% 30.18 in 7.0 mi Calm Calm - N/A   Clear
12:55 PM 62.6 °F 51.8 °F 68% 30.17 in 10.0 mi South 5.8 mph - N/A   Clear
1:15 PM 62.6 °F 51.8 °F 68% 30.15 in 10.0 mi SSW 4.6 mph - N/A   Clear
1:35 PM 64.4 °F 51.8 °F 64% 30.14 in 10.0 mi SW 4.6 mph - N/A   Clear
1:55 PM 64.4 °F 51.8 °F 64% 30.14 in 10.0 mi South 3.5 mph - N/A   Clear
2:15 PM 64.4 °F 51.8 °F 64% 30.13 in 10.0 mi South 5.8 mph - N/A   Clear
2:35 PM 64.4 °F 51.8 °F 64% 30.12 in 10.0 mi SSW 4.6 mph - N/A   Clear
2:55 PM 64.4 °F 51.8 °F 64% 30.12 in 10.0 mi SSW 5.8 mph - N/A   Clear
3:15 PM 64.4 °F 51.8 °F 64% 30.11 in 10.0 mi South 8.1 mph - N/A   Clear
3:35 PM 64.4 °F 51.8 °F 64% 30.11 in 10.0 mi South 4.6 mph - N/A   Scattered Clouds
3:55 PM 62.6 °F 51.8 °F 68% 30.11 in 10.0 mi South 6.9 mph - N/A   Clear
4:15 PM 62.6 °F 50.0 °F 63% 30.11 in 10.0 mi South 6.9 mph - N/A   Clear
4:35 PM 62.6 °F 51.8 °F 68% 30.10 in 10.0 mi SSE 6.9 mph - N/A   Clear
4:55 PM 60.8 °F 50.0 °F 68% 30.09 in 10.0 mi South 6.9 mph - N/A   Clear
5:15 PM 60.8 °F 50.0 °F 68% 30.08 in 10.0 mi South 6.9 mph - N/A   Clear
5:35 PM 60.8 °F 50.0 °F 68% 30.08 in 10.0 mi South 5.8 mph - N/A   Clear
5:55 PM 60.8 °F 50.0 °F 68% 30.08 in 10.0 mi South 6.9 mph - N/A   Clear
6:15 PM 59.0 °F 50.0 °F 72% 30.08 in 10.0 mi South 6.9 mph - N/A   Clear
6:35 PM 59.0 °F 50.0 °F 72% 30.07 in 10.0 mi South 6.9 mph - N/A   Clear
6:55 PM 59.0 °F 50.0 °F 72% 30.07 in 10.0 mi South 6.9 mph - N/A   Clear
7:15 PM 59.0 °F 50.0 °F 72% 30.06 in 10.0 mi SSW 8.1 mph - N/A   Scattered Clouds
7:35 PM 57.2 °F 50.0 °F 77% 30.05 in 10.0 mi SSW 6.9 mph - N/A   Scattered Clouds
7:55 PM 57.2 °F 50.0 °F 77% 30.05 in 10.0 mi South 6.9 mph - N/A   Clear
8:15 PM 57.2 °F 50.0 °F 77% 30.04 in 10.0 mi SW 4.6 mph - N/A   Clear
8:35 PM 55.4 °F 50.0 °F 82% 30.04 in 10.0 mi SW 5.8 mph - N/A   Mostly Cloudy
8:55 PM 59.0 °F 50.0 °F 72% 30.04 in 10.0 mi SSW 8.1 mph - N/A   Overcast
9:15 PM 57.2 °F 50.0 °F 77% 30.03 in 10.0 mi SSW 6.9 mph - N/A   Overcast
9:35 PM 57.2 °F 50.0 °F 77% 30.02 in 10.0 mi SSW 4.6 mph - N/A   Overcast
9:55 PM 57.2 °F 50.0 °F 77% 30.02 in 10.0 mi SSW 6.9 mph - N/A   Overcast
10:15 PM 59.0 °F 50.0 °F 72% 30.00 in 10.0 mi South 8.1 mph - N/A   Overcast
10:35 PM 59.0 °F 50.0 °F 72% 29.99 in 10.0 mi SSW 9.2 mph - N/A   Overcast
10:55 PM 57.2 °F 50.0 °F 77% 29.99 in 10.0 mi SSW 5.8 mph - N/A   Mostly Cloudy
11:15 PM 55.4 °F 50.0 °F 82% 29.98 in 10.0 mi South 4.6 mph - N/A   Mostly Cloudy
11:35 PM 57.2 °F 50.0 °F 77% 29.97 in 10.0 mi South 5.8 mph - N/A   Overcast
11:55 PM 57.2 °F 50.0 °F 77% 29.96 in 10.0 mi South 6.9 mph - N/A Rain Light Rain